Airfield :
LOGIN :

Register | Disclaimer

   EN    FR    IT 

 










Legend :    VFR   Marginal VFR   IFR   Intensive IFR   Very Intensive IFR
Visi :
Ceiling :
>= 8 km
>= 3000ft
5 to 8 km
1000 to 3000 ft
1500m to 5 km
500 to 1000 ft
800 to 1500m
200 to 500 ft
< 800m
< 200 ft
Symbols :   Thunderstorms  Fog  Heavy snow  Heavy precipitations  Wind > 20 kt
SIGMETs :     Misc.  Thunderstorms  Icing  Turbulence  Mountain Waves  Volcanic Ashes






- Airport Elevation : 1084 ft
- IATA code : EPL


LFSG - Épinal-Mirecourt

EXPIRED METARs :
  • 212200Z AUTO 21017G28KT 9999 -RA FEW020 BKN037 BKN047 08/06 Q1010
  • 212130Z AUTO 21014KT 9999 -RA BKN044 OVC056 08/06 Q1011
  • 212100Z AUTO 21013KT 9999 -RA FEW025 BKN056 OVC076 08/05 Q1011
  • 212030Z AUTO 21014KT 9999 -RA NSC 08/05 Q1011
  • 212000Z AUTO 21015KT 9999 -RA SCT049 BKN062 OVC074 08/04 Q1012

TAF N/A



MET'MAP, your aeronautical weather chart ! - Copyright ORBIFLY December 2007 - Disclaimer

ORBIFLY MET'MAP TEAM :

Programming & Development : Alexandra Zaïnal
Original concept : Baudouin d'Aumeries
Technical & hardware support : Manuel Goepfert
Assistance : Marc-Olivier Méhu




SOURCES & CREDITS :

   NOAA